Antioch, Texas
Current Conditions -  °F | °C
As of 9:55 AM on Sunday 23 Nov 2014 (Local Time) from KOCH Reporting Station
Overcast Overcast  
Wind Chill: 61°   Ceiling: 800
Heat Index: 61°   Visibility: 10mi
Dew Point: 57°   Wind: 8mph
Humidity: 88%   Direction: 260°W
Pressure: 29.6"   Gusts: NA
Location:  31.8636°N, 94.3909°W
Report Text: KOCH 231555Z AUTO 26007KT 10SM OVC008 16/14 A2960 RMK AO1
Loading
Personal Weather Stations






























Interactive Weather Map New forecast layout! Learn more

10-Day Weather Forecast

Advertisements
Track Severe Weather on mobile